This demonstration page uses our WeatherBlox Daily Observations layout. Learn more.

Left ArrowRight Arrow

34.74481, -87.66753

Hourly Observations for July 8, 2020

Temp ( °F °C ) Dew Point ( °F °C ) Humidity (%) Winds ( mph kmh ) Pressure ( in mb ) Visibility ( mi km ) Precip ( " mm )
12:53 am 00:53 Clear 77 25 73 22.8 88 88 WNW 5 7 29.94 1014 10 16 0.00 0.00
1:53 am 01:53 Clear 77 25 73 22.8 88 88 W 6 9 29.93 1014 10 16 0.00 0.00
2:53 am 02:53 Clear 76 24.4 72 22.2 88 88 W 7 11 29.92 1013 10 16 0.00 0.00
3:53 am 03:53 Clear 76 24.4 72 22.2 88 88 W 3 6 29.93 1014 10 16 0.00 0.00
4:53 am 04:53 Partly Cloudy 76 24.4 72 22.2 88 88 SW 3 6 29.94 1014 10 16 0.00 0.00
5:53 am 05:53 Mostly Sunny 75 23.9 70 21.1 84 84 WNW 3 6 29.95 1014 10 16 0.00 0.00
6:53 am 06:53 Sunny 77 25 71 21.7 82 82 W 3 6 29.96 1015 10 16 0.00 0.00
7:53 am 07:53 Sunny 80 26.7 72 22.2 76 76 NW 3 6 29.96 1015 10 16 0.00 0.00
8:53 am 08:53 Sunny 83 28.3 72 22.2 70 70 W 5 7 29.97 1015 10 16 0.00 0.00
9:53 am 09:53 Partly Cloudy 86 30 73 22.8 65 65 NW 3 6 29.97 1015 10 16 0.00 0.00
10:53 am 10:53 Partly Cloudy 86 30 73 22.8 65 65 Calm 29.98 1015 10 16 0.00 0.00
11:45 am 11:45 Mostly Cloudy 87 30.6 74 23.3 65 65 W 5 7 29.96 1014 10 16 0.00 0.00
11:53 am 11:53 Partly Cloudy 88 31.1 73 22.8 61 61 Calm 29.96 1015 10 16 0.00 0.00
12:39 pm 12:39 Mostly Cloudy 89 31.7 73 22.8 59 59 Calm 29.94 1014 10 16 0.00 0.00
12:53 pm 12:53 Mostly Sunny 89 31.7 74 23.3 61 61 undefined N/A 29.93 1014 10 16 0.00 0.00
1:53 pm 13:53 Sunny 90 32.2 75 23.9 62 62 W 9 15 29.91 1013 10 16 0.00 0.00
2:53 pm 14:53 Mostly Cloudy 89 31.7 72 22.2 57 57 W 5 7 29.88 1012 10 16 0.00 0.00
3:40 pm 15:40 Cloudy with Nearby Thunderstorms 80 26.7 71 21.7 74 74 N 12 19 29.88 1012 5 8 0.12 3.05
3:45 pm 15:45 Cloudy with Strong Thunderstorms 79 26.1 72 22.2 79 79 N 16 26 29.88 1012 2 3 0.25 6.35
3:51 pm 15:51 Mostly Cloudy with Strong Thunderstorms 79 26 72 22 79 79 NE 17 28 29.88 1012 1 1 0.56 14.22
3:52 pm 15:52 Mostly Cloudy with Strong Thunderstorms 78 25.6 71 21.7 79 79 ENE 14 22 29.88 1012 1 1 0.61 15.49
3:59 pm 15:59 Mostly Cloudy with Strong Thunderstorms 76 24.4 71 21.7 85 85 E 13 20 29.89 1012 1 2 0.22 5.59
4:12 pm 16:12 Mostly Cloudy with Thunderstorms 76 24.4 72 22.2 88 88 SE 15 24 29.90 1013 3 5 0.34 8.64
4:50 pm 16:50 Mostly Cloudy with Light Rain 75 24 70 21 83 83 S 8 13 29.90 1013 10 16 0.35 8.89
4:53 pm 16:53 Mostly Cloudy with Light Rain 76 24.4 70 21.1 82 82 S 9 15 29.90 1013 10 16 0.35 8.89
5:53 pm 17:53 Mostly Sunny 79 26.1 73 22.8 82 82 Calm 29.90 1013 10 16 0.00 0.00
6:53 pm 18:53 Sunny 80 26.7 72 22.2 76 76 Calm 29.88 1012 10 16 0.00 0.00
7:53 pm 19:53 Sunny 80 26.7 75 23.9 85 85 Calm 29.88 1012 10 16 0.00 0.00
8:53 pm 20:53 Mostly Cloudy 77 25 74 23.3 90 90 ESE 5 7 29.90 1013 10 16 0.00 0.00
9:12 pm 21:12 Cloudy 78 25.6 74 23.3 87 87 S 5 7 29.91 1013 10 16 0.00 0.00
9:53 pm 21:53 Cloudy 78 25.6 74 23.3 87 87 Calm 29.91 1013 10 16 0.00 0.00
10:50 pm 22:50 Partly Cloudy 77 25 73 23 89 89 Calm 29.91 1013 10 16 0.00 0.00
10:53 pm 22:53 Mostly Clear 77 25 73 22.8 88 88 Calm 29.91 1013 10 16 0.00 0.00
11:39 pm 23:39 Mostly Cloudy 76 24.4 73 22.8 91 91 Calm 29.90 1013 10 16 0.00 0.00
11:53 pm 23:53 Mostly Cloudy 76 24.4 73 22.8 91 91 S 3 6 29.90 1013 10 16 0.00 0.00

Powered by AerisWeather